Regional Weather Roundup
Issued by NWS

Home | Current Version | Previous Version | Text Only | Print | Product List | Glossary Off
Versions: 1 2 3 4 5 6 7 8 9 10 11 12 13 14 15 16 17 18 19 20 21 22 23 24 25 26 27 28 29 30 31 32 33 34 35 36 37 38 39 40 41 42 43 44 45 46 47 48 49 50

591
ASUS45 KABQ 261001
RWRNM
NEW MEXICO REGIONAL WEATHER ROUNDUP
NATIONAL WEATHER SERVICE ALBUQUERQUE NM
400 AM MDT FRI MAY 26 2017

NOTE: "FAIR" MEANS FEW OR NO CLOUDS BELOW 12,000 FEET AGL WITH NO
       SIGNIFICANT WEATHER OR OBSTRUCTIONS TO VISION.

      THIS PRODUCT IS RELEASED AS TWO VERSIONS.  ONE VERSION NEAR
      THE TOP OF THE HOUR CONTAINING PRELIMINARY DATA FROM ALBUQUERQUE
      AND OTHER STATIONS.  A FINAL VERSION WITH ADDITIONAL DATA IS
      ISSUED ABOUT 10 MINUTES AFTER THE HOUR.

NMZ501-503-504-510>518-261100-
NORTHWEST PLATEAU/NORTHCENTRAL MOUNTAINS

CITY           SKY/WX    TMP DP  RH WIND       PRES   REMARKS
FARMINGTON     FAIR      57  17  21 E6        29.92R
LOS ALAMOS     FAIR      59   9  14 W21G28    30.04R
SANTA FE       FAIR      50  11  20 CALM      30.02R
TAOS           FAIR      55  10  16 SW5       30.07R

$$
NMZ402-403-502-505>509-261100-
WESTCENTRAL MOUNTAINS/SOUTHWEST MOUNTAINS

CITY           SKY/WX    TMP DP  RH WIND       PRES   REMARKS
GALLUP         FAIR      54  14  20 S12       30.03R
GRANTS         FAIR      52  12  20 SE3       30.04R
SILVER CITY    FAIR      55  18  23 NW10      30.04R

$$
NMZ407-409-411-412-261100-
SOUTHERN DESERTS

CITY           SKY/WX    TMP DP  RH WIND       PRES   REMARKS
DEMING         FAIR      56  19  23 W3        29.98R
LAS CRUCES     FAIR      66  20  17 W9        29.99R
HOLLOMAN AFB   FAIR      74  17  11 SE3       29.98R
T OR C         FAIR      72  17  12 W15G23    29.95R

$$
NMZ519>523-261100-
CENTRAL VALLEYS/CENTRAL HIGHLANDS

CITY           SKY/WX    TMP DP  RH WIND       PRES   REMARKS
ALBUQUERQUE    FAIR      58  10  15 E10       29.98R
DOUBLE EAGLE   FAIR      56  14  19 SW10      30.00R
MORIARTY ARPT  FAIR      63  13  14 W14       30.02S
CLINES CORNERS FAIR      50  12  21 W15       30.06R
BELEN          FAIR      52  11  18 S3        29.98R
SOCORRO        NOT AVBL

$$
NMZ524>526-539-540-261100-
SOUTHCENTRAL MOUNTAINS

CITY           SKY/WX    TMP DP  RH WIND       PRES   REMARKS
RUIDOSO        NOT AVBL

$$
NMZ527>531-261100-
NORTHEAST HIGHLANDS/NORTHEAST PLAINS

CITY           SKY/WX    TMP DP  RH WIND       PRES   REMARKS
LAS VEGAS      FAIR      54   9  16 SW12      30.00R
RATON          FAIR      49  40  71 N12       29.95R
CLAYTON        FAIR      52  46  80 N13       29.91R

$$
NMZ532>537-261100-
EASTCENTRAL PLAINS

CITY           SKY/WX    TMP DP  RH WIND       PRES   REMARKS
SANTA ROSA     FAIR      61  15  16 W8        29.90R
TUCUMCARI      FAIR      63  36  36 NE14      29.84R
CANNON AFB     FAIR      61  23  23 SW12      29.88R
CLOVIS AIRPORT FAIR      70  19  14 W21       29.85R

$$
NMZ028-029-538-261100-
SOUTHEAST PLAINS

CITY           SKY/WX    TMP DP  RH WIND       PRES   REMARKS
ROSWELL        FAIR      69  17  13 NW6       29.84S
ARTESIA        FAIR      64  19  17 W8        29.86R
CARLSBAD       FAIR      77  20  12 SW12      29.84R


$$




USA.gov is the U.S. government's official web portal to all federal, state and local government web resources and services.